Regional Weather Roundup
Issued by NWS

Home | Current Version | Previous Version | Graphics & Text | Print | Product List | Glossary On
Versions: 1 2 3 4 5 6 7 8 9 10 11 12 13 14 15 16 17 18 19 20 21 22 23 24 25 26 27 28 29 30 31 32 33 34 35 36 37 38 39 40 41 42 43 44 45 46 47 48 49 50
225
ASUS43 KLOT 101503
RWRIL

ILLINOIS REGIONAL WEATHER ROUNDUP
NATIONAL WEATHER SERVICE CHICAGO/ROMEOVILLE IL
900 AM CST WED FEB 10 2016

NOTE: "FAIR" INDICATES FEW OR NO CLOUDS BELOW 12,000 FEET WITH NO
SIGNIFICANT WEATHER AND/OR OBSTRUCTIONS TO VISIBILITY.

* THESE STATIONS ARE NOT UNDER NWS QUALITY CONTROL. THEY ALSO MAY NOT
  REPORT WEATHER SUCH AS PRECIPITATION OR FOG.

ILZ001-002-007-009-015-016-024-101600-
NORTHWEST ILLINOIS

CITY           SKY/WX    TMP DP  RH WIND       PRES   REMARKS
MOLINE         CLOUDY    12   0  58 NW9       30.12S WCI   0
STERLING*      SUNNY     10   0  61 NW9       30.07R WCI  -2
$$

ILZ003-004-008-010-011-017-018-101600-
NORTH CENTRAL ILLINOIS

CITY           SKY/WX    TMP DP  RH WIND       PRES   REMARKS
ROCKFORD       MOSUNNY    9  -1  64 NW14      30.08R WCI  -7
FREEPORT*      MOSUNNY    8  -1  66 NW13      30.08S WCI  -8
ROCHELLE*      SUNNY      9   0  67 NW10      30.07R WCI  -5
DE KALB*       MOSUNNY    9   1  71 NW15      30.04R WCI  -8
$$

ILZ005-006-012>014-019>023-101600-
NORTHEAST ILLINOIS

CITY           SKY/WX    TMP DP  RH WIND       PRES   REMARKS
CHICAGO-OHARE  MOSUNNY   12   2  64 NW15      30.03R WCI  -4
CHICAGO-MIDWAY MOSUNNY   13   0  56 NW12      30.04R WCI  -1
AURORA         PTSUNNY   11   2  67 NW16      30.06R WCI  -6
LANSING*       SUNNY     13   2  61 NW14      30.04R WCI  -2
WAUKEGAN         N/A     12   1  61 NW12G18   30.01R WCI  -2
DUPAGE AIRPORT CLOUDY    11   2  67 W10       30.03R WCI  -3
WHEELING       SUNNY     12   0  58 NW16      30.04R WCI  -5
MORRIS*        SUNNY     11   3  68 NW14      30.05R WCI  -4
NORTHERLY ISL    N/A     14   2  58 W12         N/A  WCI   1
$$

LMZ740>746-101600-
SOUTHERN LAKE MICHIGAN

STATION/POSITION SKY/WX   TEMP    WIND        PRES    VSBY  WAVE
                          AIR SEA DIR/SP/G                  HT/PER
                          (F)     (DEG/KT/KT) (MB)    (MI)  (FT/S)
HARRISON CRIB              13     310/ 20/ 25   N/A
BURNHAM HARBOR             14     310/  8/ 16   N/A
CALUMET HARBOR             12     280/ 11/ 16 1015.8R
BURNS HARBOR               17     300/ 20     1015.9R
MICHIGAN CITY              17     280/ 19/ 23   N/A
$$

ILZ025>027-034>036-040-047-049-050-058-095>099-101600-
WEST-CENTRAL ILLINOIS

CITY           SKY/WX    TMP DP  RH WIND       PRES   REMARKS
QUINCY         CLOUDY    15   4  61 NW9       30.14S WCI   3
MACOMB*        MOSUNNY   12   6  77 NW9       30.16R WCI   0
$$

ILZ028>032-037-038-041>044-048-051>054-059>061-101600-
CENTRAL ILLINOIS

CITY           SKY/WX    TMP DP  RH WIND       PRES   REMARKS
BLOOMINGTON    MOSUNNY   11   3  70 NW13      30.10R WCI  -4
DECATUR        SUNNY     13   3  64 NW13      30.12R WCI  -2
PEORIA         MOSUNNY   12   2  64 NW8       30.13R WCI   0
LACON*         SUNNY     12   1  61 NW13      30.11R WCI  -3
LINCOLN*       SUNNY     14   5  69 NW9       30.13S WCI   1
SPRINGFIELD    MOSUNNY   13   4  67 NW9       30.15R WCI   1
TAYLORVILLE    NOT AVBL
$$

ILZ033-039-045-046-055>057-062-063-101600-
EAST-CENTRAL ILLINOIS

CITY           SKY/WX    TMP DP  RH WIND       PRES   REMARKS
CHAMPAIGN      SUNNY     12   4  70 W20       30.09R WCI  -6
MATTOON        SUNNY     11   3  70 W18       30.11R WCI  -7
$$

ILZ079-100>102-101600-
SOUTHWEST ILLINOIS

CITY           SKY/WX    TMP DP  RH WIND       PRES   REMARKS
ALTON          PTSUNNY   18   9  68 W14       30.18S WCI   4
BELLEVILLE     MOSUNNY   19   8  64 NW13      30.18S WCI   5
CAHOKIA*       SUNNY     20   6  55 W7        30.20R WCI  11
SPARTA*        MOSUNNY   17   8  70 W6        30.20F WCI   8
$$

ILZ064>066-069>071-074>076-080>082-084>086-088>090-092>094-101600-
SOUTH-CENTRAL ILLINOIS

CITY           SKY/WX    TMP DP  RH WIND       PRES   REMARKS
CARBONDALE     MOSUNNY   18   7  62 W10       30.22R WCI   6
CAIRO*         SUNNY     20  11  68 W9        30.25  WCI  10
MARION         MOSUNNY   19   9  63 W17       30.22R WCI   4
MT. VERNON     SUNNY     18   7  62 NW9       30.19R WCI   6
CENTRALIA*     SUNNY     18   8  65 W14       30.17S WCI   4
SALEM*         SUNNY     17   5  60 NW13      30.18R WCI   3
$$

ILZ067-068-072-073-078-083-087-091-101600-
SOUTHEAST ILLINOIS

CITY           SKY/WX    TMP DP  RH WIND       PRES   REMARKS
LAWRENCEVILLE  SUNNY     14   5  67 W17       30.16R WCI  -3
HARRISBURG*    SUNNY     19   9  67 W10G18    30.21S WCI   7
$$

ABBREVIATIONS USED IN REMARKS
   TC - TEMPERATURE IN CELSIUS
  WCI - WIND CHILL INDEX
   HX - HEAT INDEX
  VSB - VISIBILITY
$$





USA.gov is the U.S. government's official web portal to all federal, state and local government web resources and services.